www.pogodaiklimat.ru

АРХИВ ПОГОДЫ в Нью-Йорке Сити

Время (UTC), дата Ветер
(напр.,м/с)
 
Видим.   Явления Облачность Т
(С)
Тd
(С)
f
(%)
Тe
(С)
Тes
(С)
Комфортность

P
(гПа)

Po
(гПа)
Тmin
(С)
Tmax
(С)
R
(мм)
SD
(см)
15:51 14.07 нст  16 км    2/2 1650 м  +30.0  +16.7  45  +34  +50  очень
душно 
1018.8  1014.2         
16:51 14.07 нст  16 км    2/2 1800 м  +30.6  +15.6  40  +33  +50  душно  1018.0  1013.2         
17:51 14.07 З  16 км    8/5 1800 м
[средняя] 
+30.0  +16.0  43  +33  +37  душно  1017.7  1012.8         
18:51 14.07 штиль  16 км    8/8 1950 м  +30.6  +16.1  42  +34  +38  очень
душно 
1017.3  1012.5         
19:51 14.07 нст  16 км    5/5 1950 м  +30.6  +16.1  42  +34  +39  очень
душно 
1016.7  1012.2         
20:51 14.07 нст  16 км    ясно  +30.6  +17.2  45  +35  +41  очень
душно 
1016.4  1011.5         
21:51 14.07 нст  16 км    ясно  +30.6  +16.7  43  +34  +37  очень
душно 
1015.7  1010.8         
22:51 14.07 З  16 км    2/0 2250 м
[средняя] 
+30.0  +16.7  45  +34  +34  очень
душно 
1015.5  1010.8         
23:51 14.07 нст  16 км    ясно  +28.9  +17.2  49  +33  +33  очень
душно 
1015.7  1010.8         
00:51 15.07 нст  16 км    ясно  +28.9  +16.7  48  +33  +33  очень
душно 
1016.5  1011.8         
01:51 15.07 нст  16 км    ясно  +28.3  +16.1  48  +32  +32  душно  1016.5  1011.8         
02:51 15.07 СВ  16 км    8/5 1800 м
[средняя] 
+28.0  +18.0  55  +33  +33  очень
душно 
1017.5  1012.8         
03:19 15.07 СЗ  4
{10} 
3 км  сильный дождь  10/8 720 м
[средняя] 
+24.4  +21.1  82  +31  +31  очень
душно 
           
03:26 15.07 нст  1
{10} 
800 м  сильный дождь, туман  10/10 420 м  +22.8  +21.7  94  +31  +31  очень
душно 
  1014.9         
03:33 15.07     2 км  сильный дождь, дымка  10/10 780 м  +22.2  +21.1  93  +29  +29  очень
душно 
  1014.5         
03:42 15.07 нст  4 км  сильный дождь, дымка  10/8 690 м
[средняя] 
+21.7  +20.0  90  +27  +27  душно    1013.5         
03:51 15.07 штиль  6 км  дождь, дымка  10/5 1230 м
[средняя] 
+21.1  +20.0  93  +26  +26  душно    1013.2         
04:51 15.07 штиль  16 км    5/0 2700 м
[средняя] 
+21.1  +20.0  93  +26  +26  душно  1017.1  1012.5  +20.6  +30.0  9.1   
05:51 15.07 З  13 км  слабый дождь  8/0 2400 м
[средняя] 
+21.1  +20.0  93  +26  +26  душно    1012.2         
06:08 15.07 штиль  1 км  сильный дождь, дымка  10/2 900 м
[средняя] 
+21.1  +20.0  93  +26  +26  душно    1012.5         
06:17 15.07 З   5 км  слабый дождь, дымка  10/2 870 м
[средняя] 
+21.1  +20.0  93  +26  +26  душно    1012.2         
06:51 15.07 З  11 км    10/8 1800 м
[средняя] 
+21.1  +20.6  97  +26  +26  душно    1011.8         
07:23 15.07 З  3 км  дождь, дымка  10/8 300 м
[средняя] 
+21.7  +20.6  93  +27  +27  душно             
07:38 15.07 нст  2 км  дождь, дымка  10/8 270 м
[средняя] 
+21.1  +20.6  97  +26  +26  душно    1011.8         
07:51 15.07 ЮЗ  3 км  слабый дождь, дымка  8/2 1050 м
[средняя] 
+21.1  +20.6  97  +26  +26  душно  1016.4  1011.8      9.9   
08:11 15.07 нст  5 км  слабый дождь, дымка  8/0 3300 м
[средняя] 
+21.0  +21.0  100  +27  +27  душно    1011.2         
08:51 15.07 штиль  8 км  дымка  8/0 2400 м
[средняя] 
+21.7  +20.6  93  +27  +27  душно  1016.9  1012.2         
09:05 15.07 З  3 км  сильный дождь, дымка  10/2 870 м
[средняя] 
+21.1  +20.6  97  +26  +26  душно    1012.5         
09:14 15.07 штиль  1 км  слабый дождь, дымка  10/2 450 м
[средняя] 
+21.1  +20.0  93  +26  +26  душно    1012.2         
09:17 15.07 штиль  4 км  слабый дождь, дымка  10/2 450 м
[средняя] 
+21.1  +20.0  93  +26  +26  душно    1012.2         
09:24 15.07 З  8 км  дымка  8/2 510 м
[средняя] 
+20.6  +20.0  96  +26  +26  душно    1012.2         
09:51 15.07 штиль  6 км  слабый дождь, дымка  8/0 3000 м
[средняя] 
+21.1  +20.6  97  +26  +26  душно  1017.0  1012.2         
10:00 15.07 штиль  3 км  слабый дождь, дымка  8/2 1500 м
[средняя] 
+21.0  +21.0  100  +26  +27  душно    1011.8         
10:25 15.07 штиль  4 км  слабый дождь, дымка  8/0 3000 м
[средняя] 
+21.7  +20.6  93  +27  +28  душно    1011.8         
10:32 15.07 штиль  8 км  дымка  8/0 3000 м
[средняя] 
+21.0  +21.0  100  +26  +27  душно    1011.8         
10:51 15.07 штиль  8 км  дымка  2/0 3300 м
[средняя] 
+21.1  +20.6  97  +26  +28  душно  1016.5  1011.8  +20.6  +22.2     
11:51 15.07 З  8 км  слабый дождь, дымка  5/5 1080 м
[средняя] 
+21.1  +20.6  97  +26  +28  душно  1016.2  1011.5         
12:51 15.07 нст  13 км    2/2 1050 м  +22.0  +21.0  94  +28  +35  душно  1015.8  1011.2         
13:51 15.07 З  13 км    5/0 2850 м
[средняя] 
+22.0  +21.0  94  +28  +35  душно  1016.2  1011.5         
14:51 15.07 нст  13 км    10/8 1800 м
[средняя] 
+22.0  +20.0  88  +28  +29  душно  1016.6  1011.8         
15:51 15.07 З  13 км    10/8 1800 м
[средняя] 
+22.2  +20.6  91  +29  +30  очень
душно 
1016.3  1011.5         
16:51 15.07 нст  16 км    ясно  +25.0  +21.0  78  +31  +46  очень
душно 
1015.6  1010.8  +20.6       
17:51 15.07 штиль  16 км    ясно  +26.1  +20.6  72  +33  +58  опасность
солнечного
удара 
1015.1  1010.5         
18:51 15.07 нст  16 км    ясно  +26.7  +21.1  71  +34  +47  очень
душно 
1014.6  1009.8         
19:51 15.07 нст  16 км    ясно  +27.8  +20.0  63  +34  +47  очень
душно 
1013.8  1009.1         
20:51 15.07 нст  16 км    ясно  +27.8  +20.6  65  +35  +41  очень
душно 
1013.7  1009.1         
21:51 15.07 нст  16 км    ясно  +26.7  +19.4  64  +32  +36  очень
душно 
1013.7  1008.8         
22:51 15.07 ЮЗ  16 км    ясно  +26.7  +18.9  62  +32  +33  очень
душно 
1014.0  1009.1         

 

Местоположение метеостанции Central Park: широта 40.7833 долгота -73.9667 высота над уровнем моря 47 м.

В архиве по умолчанию представлена погода в Нью-Йорке Сити за последние 1-2 суток. Обновление информации о фактической погоде в базе происходит ежечасно! Архивные данные за месяц целиком и за предыдущие месяцы Вы можете получить, выбрав интересующий диапазон дат из раскрывающегося списка и нажав кнопку "Ввод!".

Внимание! Архив погоды МЕТАР в базе сайта в настоящее время начинается c 1 января 2013 г. Нет смысла пытаться выбрать более раннюю дату.

Внимание! Время в таблицах - всемирное. Для получения местного времени необходимо прибавить поправку, которая в Нью-Йорке Сити равна -5 ч.

Ветер - указаны скорость ветра в м/с и направление, откуда дует ветер: С - северный, СВ - северо-восточный, В - восточный, ЮВ - юго-восточный, Ю - южный, ЮЗ - юго-западный, З - западный, СЗ - северо-западный.
Видимость - горизонтальная дальность видимости в метрах или километрах. При видимости от 1 до 10 км при отсутствии осадков обычно наблюдается дымка, при ухудшении видимости до 1 км и менее - туман. В сухую погоду видимость может ухудшаться дымом, пылью или мглою.
Атмосферные явления - указаны явления, наблюдавшиеся в указанный момент времени.
Облачность - указаны через наклонную черту верхняя и нижняя облачность в баллах и высота нижней границы облаков в метрах. Внимание: облачность, как и прочие метеорологические величины в США измеряются автоматическими метеостанциями. Указанные значения в баллах носят условный характер и показывают процент времени, в течение которого, в среднем, лазерный луч высотомера отражался от облаков обратно.
T - Температура воздуха - температура, измеренная на высоте 2 м над землей.
Td - Температура точки росы - температура, при понижении до которой содержащийся в воздухе водяной пар достигнет насыщения.
f - Относительная влажность воздуха - влажноcть воздуха, измеренная на высоте 2 м над землей.
Te - Эффективная температура - температура, которую ощущает одетый по сезону человек в тени. Характеристика душности погоды. При расчете учитывается влияние влажности воздуха и скорости ветра на теплоощущения человека.
Tes - Эффективная температура на солнце - температура, которую ощущает человек, с поправкой на солнечный нагрев. Характеристика знойности погоды. Зависит от высоты солнца над горизонтом, облачности и скорости ветра. Ночью, в пасмурную погоду, а также при ветре 12 м/с и более поправка равна нулю.
P - Атмосферное давление - приведенное к уровню моря атмосферное давление.
Po - Атмосферное давление - измеренное на уровне метеостанции атмосферное давление.
Tmin - Минимальная температура - минимум температуры воздуха на высоте 2 м над землей.
Tmax - Максимальная температура - максимум температуры воздуха на высоте 2 м над землей.
R - Количество осадков - Количество выпавших осадков за 3 или 6 часов, мм.
SD - Снежный покров - Высота снежного покрова, см.